Regional Weather Roundup
Issued by NWS Wakefield, VA

Home | Current Version | Previous Version | Text Only | Print | Product List | Glossary On
Versions: 1 2 3 4 5 6 7 8 9 10 11 12 13 14 15 16 17 18 19 20 21 22 23 24 25 26 27 28 29 30 31 32 33 34 35 36 37 38 39 40 41 42 43 44 45 46 47 48 49 50
000
ASUS41 KAKQ 011114
RWRAKQ

REGIONAL WEATHER ROUNDUP
NATIONAL WEATHER SERVICE WAKEFIELD VA
700 AM EDT TUE SEP 01 2015

Note: "fair" indicates few or no clouds below 12,000 feet with no
significant weather and/or obstructions to visibility. * = Denotes
station may not report precipitation (e.g., rain,snow,etc.),
thunder or fog.

VAZ042-051-052>054-056-011200-
NORTHERN VIRGINIA

CITY           SKY/WX    TMP DP  RH WIND       PRES   REMARKS
WASH NATIONAL  PTCLDY    72  69  90 W3        30.05R
DULLES         CLEAR     65  65 100 CALM      30.06R FOG
FORT BELVOIR   CLEAR     66  65  96 CALM      30.05R
QUANTICO       PTCLDY    71  68  90 CALM      30.07R
FREDERICKSBRG* CLOUDY    72  72 100 CALM      30.05R
STAFFORD*      FOG       69  67  95 CALM      30.10R VSB 3/4
WARRENTON      FOG       67  67 100 CALM      30.06R VSB<1/4
CULPEPER*      FOG       64  64 100 CALM      30.07R VSB 3/4
MANASSAS*      FOG       66  66 100 CALM      30.06R VSB 1/8
LEESBURG*      CLEAR     68  68 100 CALM      30.08R
WINCHESTER     CLEAR     66  63  88 CALM      30.10R
FRONT ROYAL*   FAIR      66  63  88 SW5       30.09R
LURAY*         FAIR      61  61 100 CALM      30.11S
$$

VAZ048-049-060>072-079>083-011200-
CENTRAL AND SOUTH CENTRAL VIRGINIA

CITY           SKY/WX    TMP DP  RH WIND       PRES   REMARKS
RICHMOND       CLOUDY    72  69  90 CALM      30.06R
CHESTERFIELD*  CLOUDY    70  59  68 SW3       30.08R
PETERSBURG*    CLOUDY    72  72 100 CALM      30.08R
HANOVER        CLOUDY    70  69  97 CALM      30.07R FOG
TAPPAHANNOCK*  FOG       70  67  92 CALM      30.07R VSB 1/4
QUINTON*       CLOUDY    70  69  97 CALM      30.06R
CHARLOTTSVILLE CLEAR     64  62  93 CALM      30.07R
GORDONSVILLE*  FOG       66  66 100 CALM      30.06R VSB<1/4
ORANGE*        FOG       68  66  94 CALM      30.08R VSB<1/4
LOUISA*        FOG       66  66 100 CALM      30.06R VSB<1/4
BUMPASS*       CLOUDY    69  68  99 CALM      30.07R VSB 1/4
FARMVILLE*     FOG       64  64 100 CALM      30.06R VSB 1/2
CREWE*         CLOUDY   N/A N/A N/A CALM      30.06R VSB<1/4
FORT PICKETT*  CLOUDY    68  67  98 CALM      30.07S VSB<1/4
CHASE CITY*    CLOUDY    67  67 100 CALM      30.08S VSB 1/2
CLARKSVILLE*   CLOUDY    63  63 100 CALM      30.07S VSB<1/4
SOUTH HILL*    CLOUDY    69  69 100 CALM      30.13S VSB<1/4
LAWRENCEVILLE* CLOUDY    70  70 100 CALM      30.07S
EMPORIA*       CLOUDY    70  70 100 CALM      30.09R
$$

VAZ088>098-011200-
SOUTHEAST VIRGINIA

CITY           SKY/WX    TMP DP  RH WIND       PRES   REMARKS
NORFOLK        CLOUDY    75  70  84 CALM      30.05R
VIRGINIA BEACH CLOUDY    74  71  91 CALM      30.04R
NORFOLK NAVAL  MOCLDY    75  70  84 N5        30.07R
WEST POINT*    CLOUDY    73  69  88 CALM      30.07R
SALUDA*        CLOUDY    70  69  96 CALM      30.05R
NEWPORT NEWS   CLOUDY    73  70  90 N3        30.06R
LANGLEY AFB    CLOUDY    73  70  89 W5        30.05R
FORT EUSTIS    CLOUDY    73  73 100 NE2       30.04R
WILLIAMSBURG*  CLOUDY    73  72  94 CALM      30.07R
HR EXEC AP*      N/A     70  66  88 CALM      30.08R
FRANKLIN*      CLOUDY    70  69  98 NW3       30.07R
WAKEFIELD      CLOUDY    72  69  90 CALM      30.07R FOG
$$

VAZ020-022-025-037-045-011200-
WEST CENTRAL AND SOUTHWEST VIRGINIA

CITY           SKY/WX    TMP DP  RH WIND       PRES   REMARKS
STAUNTON*      CLEAR     63  60  93 CALM      30.15R FOG
WAYNESBORO*    FAIR      63  61  94 CALM      30.14R
HOT SPRINGS VA CLEAR     65  61  85 NW8       30.24S
LYNCHBURG      CLEAR     63  63 100 CALM      30.11R
DANVILLE       CLEAR     66  64  93 SW3       30.09S FOG
SOUTH BOSTON*  CLOUDY    63  62  94 CALM      30.08S VSB<1/4
MARTINSVILLE   CLEAR     61  61 100 CALM      30.14R
ROANOKE        CLEAR     66  62  87 NW6       30.15R
BLACKSBURG     CLEAR     61  61 100 N3        30.22R FOG
DUBLIN*        CLOUDY    61  61 100 CALM      30.20R FOG
MARION*        CLEAR     61  59  94 CALM      30.24R
HILLSVILLE*    CLEAR     60  60  99 CALM      30.21R
RICHLANDS*     FAIR      63  36  36 CALM      30.23R
WISE*          CLEAR     64  64 100 CALM      30.24R
ABINGDON*      CLEAR     64  62  93 CALM      30.20R
$$

MDZ021>025-VAZ099-100-011200-
SOUTHERN MARYLAND AND THE DELMARVA PENINSULA

CITY           SKY/WX    TMP DP  RH WIND       PRES   REMARKS
PATUXENT RIVER PTCLDY    65  64  97 CALM      30.05R
BAY BRIDGE APT   N/A     72  70  94 W3        30.04R
LEONARDTOWN    NOT AVBL
DOVER          CLEAR     71  71 100 W5        30.02R
GEORGETOWN     CLEAR     69  68  96 SW3       30.05R
EASTON         CLEAR     72  72 100 CALM      30.08R
CAMBRIDGE      CLEAR     68  64  88 CALM      30.04R
SALISBURY      MOCLDY    65  64  97 CALM      30.04S
OCEAN CITY     CLEAR     69  67  93 CALM      30.05R FOG
WALLOPS ISLAND CLEAR     69  69 100 CALM      30.05R
ACCOMACK*      MOCLDY    66  61  82 CALM      30.05R
$$

NCZ012>017-030>032-011200-
NORTH CENTRAL AND EASTERN NORTH CAROLINA

CITY           SKY/WX    TMP DP  RH WIND       PRES   REMARKS
ROANOKE RAPIDS CLOUDY    70  70 100 CALM      30.08R FOG
RALEIGH        PTCLDY    68  66  94 CALM      30.10R FOG
ELIZABETH CITY MOCLDY    72  72 100 NW3       30.05R
AHOSKIE*       DRIZZLE   70  69  98 CALM      30.08R
EDENTON*       CLOUDY    69  69  99 CALM      30.05S
CURRITUCK*     PTCLDY    73  71  93 CALM      30.05S
KILL DEVIL HLS PTCLDY    74  73  95 CALM      30.02S
MANTEO         PTCLDY    74  73  98 CALM      30.03S
CAPE HATTERAS  CLOUDY    77  75  93 N6        30.02R
TARBORO*       CLOUDY    72  71  97 CALM      30.09R FOG
GOLDSBORO      CLOUDY    73  73 100 W2        30.07R
WASHINGTON     CLOUDY    72  72  98 NW3       30.06S FOG
GREENVILLE     LGT RAIN  72  72 100 N3        30.08S
NEW BERN       CLOUDY    75  72  90 W3        30.07R
WILMINGTON     CLOUDY    72  71  97 NW8       30.07R
$$

VAZ048-011200-
ELSEWHERE

CITY           SKY/WX    TMP DP  RH WIND       PRES   REMARKS
HARRISBURG PA  CLEAR     71  66  84 NW7       30.05R
BALTIMORE      PTCLDY    69  68  96 CALM      30.04R
ANNAPOLIS      CLEAR     72  70  93 CALM      30.03R
ANDREWS AFB    CLEAR     70  69  96 W6        30.05R
PHILADELPHIA   CLEAR     75  67  76 W3        30.03R
HENDERSON NC   FOG       67  65  93 CALM      30.09R VSB 1/4
GREENSBORO     CLEAR     68  67  96 CALM      30.10S
ROCKY MOUNT    CLOUDY    72  70  93 N5        30.08S
$$

VAZ100-011200-
MARINE

STATION/POSITION TIME  TEMP    WIND        PRES    WAVE   SWELL
                       AIR SEA DIR/SP/G            HT/PER HT/PER
                 (UTC) (F)     (DEG/KT/KT) (MB)    (FT/S) (FT/S)
BRANDYWINE LGT   1000   74 75  290/  8/  9 1017.0S
CAPE MAY NJ      1000   74 79  290/  6/  8 1016.5F
LEWES DE         1000   71 75  240/  3/  5 1016.6F
15NM E FENWICK I 1050   74 78  270/  8/ 10 1017.4R   2/ 8   2/ 8
OCEAN-CITY-INLET 1000   71 77  280/  3/  3 1016.2F
GOOSES REEF MD   1100   75 79  280/  6/  6 1018.5R
COVE POINT MD    1000   72     240/  3/  4 1017.7R
SOLOMONS ISLAND  1000      80                N/A
BISHOPS HEAD MD  1000   74 77  270/  5/  6 1016.2R
PINEY POINT MD   1005          280/  6/  7   N/A
POTOMAC MD       1100   73 79  270/  4/  6 1016.6R   1
CAMBRIDGE MD     1000   71 80  200/  2/  4 1016.0S
LEWISETTA VA     1000   71 79  220/  3/  4 1016.8R
RAPPAHANNOCK LGT 1000          290/  7/  8 1017.7R
STINGRAY PT      1100   74 79  310/  2/  4 1018.0R   0
YORK RVR RNG VA  1000   73     330/  6/  7 1016.8R
YORKTOWN VA      1000   74 80  270/  5/  6 1016.9R
JAMESTOWN VA     1100   72 80   10/  2/  4   N/A
DOMINION TERM VA 1000   74     310/  6/  8 1017.1R
KIPTOPEKE VA     1000      79   10/  5/  5   N/A
CHES BAY BRIDGE  1000   75 79  290/  5/  6 1016.8R
CAPE HENRY VA    1000   74      CALM  /  1   N/A
CHESAPEAKE LGHT  1000   75     330/  4/  5 1017.9R
WILLOUBY STN VA  1000   74     360/  5/  6 1018.1R
CAPE HENRY BUOY  1028      78                N/A     2/ 8
1ST LANDING BUOY 1100      79              1017.2R   1/ 5
CAPE CHARLES BUO 1026      78                N/A     2/ 8   2/ 8
OFFSHORE WE BUOY 1011      78                N/A     2/ 8   2/ 8
64NM E OF VA BCH 1050   78 78   50/  6/  6 1016.7S   2/ 8   2/ 8
DUCK PIER NC     1000   76 78   50/  3/  4 1016.3R
44100 DUCK FRF   1024      77                N/A     2/ 8
44056 DUCK FRF   1011      78                N/A     2/ 8
OREGON INLET NC  1000   76 79   30/  5/  7 1016.5R
HATTERAS NC      1000   78 79  340/ 11/ 12 1015.9S
DIAMOND SHLS NC  1050   80 84  330/ 12/ 16 1016.2R   4/ 6   3/ 6
CAPE LOOKOUT NC  1100   76     310/ 10/ 13 1017.0R
$$


USA.gov is the U.S. government's official web portal to all federal, state and local government web resources and services.